| time (UTC) | temp F | wind direction | speed MPH | gust MPH | rain 1hr in | rain 24hr in | rain mn in | humidity % | barometer mb |
| 20260510154558 | 76 | 55 | 0.0 | 3.0 | 0.00 | 0.00 | 0.00 | 69 | |
| 20260510154358 | 76 | 34 | 0.0 | 2.0 | 0.00 | 0.00 | 0.00 | 69 | |
| 20260510154157 | 76 | 34 | 0.0 | 2.0 | 0.00 | 0.00 | 0.00 | 70 | |
| 20260510153757 | 76 | 354 | 0.0 | 2.0 | 0.00 | 0.00 | 0.00 | 70 | |
| 20260510153358 | 75 | 354 | 0.0 | 1.0 | 0.00 | 0.00 | 0.00 | 70 | |
| 20260510153158 | 75 | 354 | 0.0 | 1.0 | 0.00 | 0.00 | 0.00 | 71 | |
| 20260510152557 | 75 | 324 | 0.0 | 4.0 | 0.00 | 0.00 | 0.00 | 71 | |
| 20260510152157 | 74 | 68 | 2.0 | 4.0 | 0.00 | 0.00 | 0.00 | 72 | |
| 20260510151958 | 74 | 29 | 2.0 | 3.0 | 0.00 | 0.00 | 0.00 | 73 | |
| 20260510150958 | 74 | 29 | 2.0 | 3.0 | 0.00 | 0.00 | 0.00 | 71 | |
| 20260510150757 | 74 | 27 | 2.0 | 3.0 | 0.00 | 0.00 | 0.00 | 72 | |
| 20260510150558 | 74 | 27 | 2.0 | 3.0 | 0.00 | 0.00 | 0.00 | 72 | |
| 20260510150357 | 73 | 18 | 1.0 | 3.0 | 0.00 | 0.00 | 0.00 | 69 | |
| 20260510150157 | 73 | 4 | 0.0 | 3.0 | 0.00 | 0.00 | 0.00 | 68 | |
| 20260510145959 | 73 | 4 | 0.0 | 4.0 | 0.00 | 0.00 | 0.00 | 70 | |
| 20260510145800 | 73 | 4 | 0.0 | 4.0 | 0.00 | 0.00 | 0.00 | 70 | |
| 20260510145557 | 73 | 4 | 1.0 | 4.0 | 0.00 | 0.00 | 0.00 | 71 | |
| 20260510145000 | 73 | 35 | 1.0 | 4.0 | 0.00 | 0.00 | 0.00 | 68 | |
| 20260510144759 | 73 | 21 | 1.0 | 4.0 | 0.00 | 0.00 | 0.00 | 68 | |
| 20260510144559 | 72 | 21 | 2.0 | 4.0 | 0.00 | 0.00 | 0.00 | 68 | |
| 20260510144358 | 72 | 40 | 1.0 | 3.0 | 0.00 | 0.00 | 0.00 | 69 | |
| 20260510144158 | 72 | 39 | 1.0 | 3.0 | 0.00 | 0.00 | 0.00 | 71 | |
| 20260510144004 | 72 | 38 | 1.0 | 3.0 | 0.00 | 0.00 | 0.00 | 68 | |
| 20260510143759 | 71 | 36 | 2.0 | 3.0 | 0.00 | 0.00 | 0.00 | 69 | |
| 20260510143559 | 71 | 37 | 1.0 | 3.0 | 0.00 | 0.00 | 0.00 | 73 | |
| 20260510143359 | 71 | 35 | 1.0 | 3.0 | 0.00 | 0.00 | 0.00 | 70 | |
| 20260510143158 | 70 | 35 | 1.0 | 3.0 | 0.00 | 0.00 | 0.00 | 69 | |
| 20260510142959 | 70 | 34 | 0.0 | 3.0 | 0.00 | 0.00 | 0.00 | 69 | |
| 20260510142758 | 70 | 34 | 0.0 | 3.0 | 0.00 | 0.00 | 0.00 | 70 | |
| 20260510142558 | 70 | 33 | 1.0 | 3.0 | 0.00 | 0.00 | 0.00 | 69 | |
| 20260510142358 | 70 | 46 | 0.0 | 3.0 | 0.00 | 0.00 | 0.00 | 70 | |
| 20260510142159 | 69 | 46 | 2.0 | 3.0 | 0.00 | 0.00 | 0.00 | 70 | |
| 20260510142001 | 69 | 56 | 1.0 | 3.0 | 0.00 | 0.00 | 0.00 | 70 | |
| 20260510141759 | 69 | 29 | 1.0 | 3.0 | 0.00 | 0.00 | 0.00 | 72 | |
| 20260510141559 | 69 | 58 | 0.0 | 3.0 | 0.00 | 0.00 | 0.00 | 72 | |
| 20260510141359 | 69 | 56 | 0.0 | 3.0 | 0.00 | 0.00 | 0.00 | 72 | |
| 20260510141158 | 69 | 56 | 1.0 | 4.0 | 0.00 | 0.00 | 0.00 | 72 | |
| 20260510141000 | 69 | 59 | 2.0 | 4.0 | 0.00 | 0.00 | 0.00 | 72 | |
| 20260510140159 | 68 | 19 | 1.0 | 3.0 | 0.00 | 0.00 | 0.00 | 73 | |
| 20260510140000 | 68 | 13 | 1.0 | 3.0 | 0.00 | 0.00 | 0.00 | 73 | |
| 20260510135558 | 68 | 359 | 1.0 | 4.0 | 0.00 | 0.00 | 0.00 | 75 | |
| 20260510135358 | 68 | 359 | 2.0 | 4.0 | 0.00 | 0.00 | 0.00 | 74 | |
| 20260510135005 | 67 | 343 | 3.0 | 4.0 | 0.00 | 0.00 | 0.00 | 74 | |
| 20260510134758 | 67 | 359 | 2.0 | 4.0 | 0.00 | 0.00 | 0.00 | 77 | |
| 20260510134600 | 67 | 4 | 2.0 | 4.0 | 0.00 | 0.00 | 0.00 | 76 | |
| 20260510134358 | 66 | 8 | 2.0 | 4.0 | 0.00 | 0.00 | 0.00 | 79 | |
| 20260510134159 | 66 | 8 | 1.0 | 4.0 | 0.00 | 0.00 | 0.00 | 78 | |
| 20260510134000 | 66 | 4 | 2.0 | 3.0 | 0.00 | 0.00 | 0.00 | 79 | |
| 20260510133359 | 66 | 311 | 0.0 | 2.0 | 0.00 | 0.00 | 0.00 | 79 | |
| 20260510133158 | 66 | 310 | 0.0 | 2.0 | 0.00 | 0.00 | 0.00 | 80 | |
| 20260510132757 | 65 | 311 | 0.0 | 3.0 | 0.00 | 0.00 | 0.00 | 80 | |
| 20260510132159 | 65 | 311 | 1.0 | 3.0 | 0.00 | 0.00 | 0.00 | 81 | |
| 20260510132000 | 65 | 311 | 1.0 | 3.0 | 0.00 | 0.00 | 0.00 | 81 | |
| 20260510131758 | 65 | 309 | 0.0 | 3.0 | 0.00 | 0.00 | 0.00 | 81 | |
| 20260510131559 | 64 | 311 | 0.0 | 3.0 | 0.00 | 0.00 | 0.00 | 82 | |
| 20260510131359 | 64 | 312 | 1.0 | 3.0 | 0.00 | 0.00 | 0.00 | 81 | |
| 20260510131159 | 64 | 304 | 0.0 | 3.0 | 0.00 | 0.00 | 0.00 | 83 | |
| 20260510131001 | 64 | 303 | 0.0 | 3.0 | 0.00 | 0.00 | 0.00 | 83 | |
| 20260510130757 | 64 | 302 | 0.0 | 3.0 | 0.00 | 0.00 | 0.00 | 84 | |
| 20260510130559 | 64 | 303 | 1.0 | 3.0 | 0.00 | 0.00 | 0.00 | 85 | |
| 20260510130358 | 63 | 312 | 0.0 | 2.0 | 0.00 | 0.00 | 0.00 | 85 | |
| 20260510125959 | 63 | 316 | 0.0 | 3.0 | 0.00 | 0.00 | 0.00 | 84 | |
| 20260510125757 | 63 | 315 | 1.0 | 3.0 | 0.00 | 0.00 | 0.00 | 85 | |
| 20260510125558 | 63 | 315 | 0.0 | 3.0 | 0.00 | 0.00 | 0.00 | 86 | |
| 20260510125356 | 63 | 315 | 1.0 | 3.0 | 0.00 | 0.00 | 0.00 | 86 | |
| 20260510125158 | 63 | 315 | 0.0 | 2.0 | 0.00 | 0.00 | 0.00 | 86 | |
| 20260510124958 | 63 | 315 | 0.0 | 3.0 | 0.00 | 0.00 | 0.00 | 87 | |
| 20260510124757 | 62 | 316 | 0.0 | 3.0 | 0.00 | 0.00 | 0.00 | 87 | |
| 20260510124558 | 62 | 315 | 1.0 | 3.0 | 0.00 | 0.00 | 0.00 | 87 | |
| 20260510124358 | 62 | 315 | 0.0 | 3.0 | 0.00 | 0.00 | 0.00 | 88 | |
| 20260510124157 | 62 | 316 | 1.0 | 3.0 | 0.00 | 0.00 | 0.00 | 90 | |
| 20260510123958 | 62 | 320 | 0.0 | 3.0 | 0.00 | 0.00 | 0.00 | 90 | |
| 20260510123558 | 61 | 330 | 1.0 | 4.0 | 0.00 | 0.00 | 0.00 | 90 | |
| 20260510123359 | 61 | 330 | 1.0 | 4.0 | 0.00 | 0.00 | 0.00 | 90 | |
| 20260510123157 | 60 | 327 | 2.0 | 4.0 | 0.00 | 0.00 | 0.00 | 91 | |
| 20260510122959 | 60 | 4 | 2.0 | 4.0 | 0.00 | 0.00 | 0.00 | 92 | |
| 20260510122758 | 60 | 14 | 1.0 | 4.0 | 0.00 | 0.00 | 0.00 | 92 | |
| 20260510122357 | 59 | 17 | 3.0 | 5.0 | 0.00 | 0.00 | 0.00 | 93 | |
| 20260510122158 | 59 | 359 | 1.0 | 5.0 | 0.00 | 0.00 | 0.00 | 94 | |
| 20260510121959 | 59 | 354 | 3.0 | 5.0 | 0.00 | 0.00 | 0.00 | 94 | |
| 20260510121758 | 58 | 346 | 2.0 | 4.0 | 0.00 | 0.00 | 0.00 | 94 | |
| 20260510121557 | 58 | 339 | 0.0 | 4.0 | 0.00 | 0.00 | 0.00 | 94 | |
| 20260510121357 | 58 | 330 | 1.0 | 4.0 | 0.00 | 0.00 | 0.00 | 95 | |
| 20260510121157 | 58 | 330 | 2.0 | 4.0 | 0.00 | 0.00 | 0.00 | 95 | |
| 20260510120958 | 58 | 335 | 1.0 | 3.0 | 0.00 | 0.00 | 0.00 | 95 | |
| 20260510120757 | 57 | 359 | 1.0 | 3.0 | 0.00 | 0.00 | 0.00 | 95 | |
| 20260510120558 | 57 | 359 | 2.0 | 3.0 | 0.00 | 0.00 | 0.00 | 95 | |
| 20260510120356 | 57 | 359 | 2.0 | 3.0 | 0.00 | 0.00 | 0.00 | 96 | |
| 20260510120157 | 57 | 354 | 1.0 | 3.0 | 0.00 | 0.00 | 0.00 | 96 | |
| 20260510115757 | 57 | 354 | 1.0 | 3.0 | 0.00 | 0.00 | 0.00 | 96 | |
| 20260510115556 | 56 | 354 | 0.0 | 3.0 | 0.00 | 0.00 | 0.00 | 96 | |
| 20260510115356 | 56 | 354 | 1.0 | 3.0 | 0.00 | 0.00 | 0.00 | 97 | |
| 20260510115156 | 56 | 354 | 1.0 | 3.0 | 0.00 | 0.00 | 0.00 | 96 | |
| 20260510114959 | 56 | 354 | 0.0 | 3.0 | 0.00 | 0.00 | 0.00 | 97 | |
| 20260510114558 | 56 | 354 | 0.0 | 3.0 | 0.00 | 0.00 | 0.00 | 97 | |
| 20260510114357 | 56 | 354 | 0.0 | 4.0 | 0.00 | 0.00 | 0.00 | 97 | |
| 20260510114158 | 56 | 354 | 0.0 | 4.0 | 0.00 | 0.00 | 0.00 | 97 | |
| 20260510113959 | 56 | 354 | 0.0 | 4.0 | 0.00 | 0.00 | 0.00 | 97 | |
| 20260510113758 | 56 | 354 | 1.0 | 4.0 | 0.00 | 0.00 | 0.00 | 97 | |
| 20260510113557 | 55 | 354 | 1.0 | 4.0 | 0.00 | 0.00 | 0.00 | 97 | |
| 20260510113358 | 55 | 354 | 1.0 | 3.0 | 0.00 | 0.00 | 0.00 | 97 | |
| 20260510113157 | 55 | 354 | 2.0 | 4.0 | 0.00 | 0.00 | 0.00 | 97 | |
| 20260510112959 | 55 | 354 | 1.0 | 4.0 | 0.00 | 0.00 | 0.00 | 97 | |
| 20260510112757 | 55 | 354 | 0.0 | 4.0 | 0.00 | 0.00 | 0.00 | 97 | |
| 20260510112358 | 55 | 359 | 2.0 | 4.0 | 0.00 | 0.00 | 0.00 | 98 | |
| 20260510111959 | 54 | 339 | 1.0 | 4.0 | 0.00 | 0.00 | 0.00 | 98 | |
| 20260510111758 | 54 | 334 | 2.0 | 4.0 | 0.00 | 0.00 | 0.00 | 98 | |
| 20260510111557 | 54 | 302 | 2.0 | 4.0 | 0.00 | 0.00 | 0.00 | 98 | |
| 20260510111357 | 54 | 301 | 1.0 | 3.0 | 0.00 | 0.00 | 0.00 | 98 | |
| 20260510111157 | 54 | 301 | 1.0 | 2.0 | 0.00 | 0.00 | 0.00 | 98 | |
| 20260510110958 | 54 | 300 | 0.0 | 2.0 | 0.00 | 0.00 | 0.00 | 97 | |
| 20260510110758 | 54 | 300 | 1.0 | 2.0 | 0.00 | 0.00 | 0.00 | 97 | |
| 20260510110559 | 53 | 301 | 0.0 | 2.0 | 0.00 | 0.00 | 0.00 | 97 | |
| 20260510110357 | 53 | 301 | 0.0 | 2.0 | 0.00 | 0.00 | 0.00 | 97 | |
| 20260510105558 | 53 | 301 | 0.0 | 0.0 | 0.00 | 0.00 | 0.00 | 96 | |
| 20260510105358 | 53 | 301 | 0.0 | 0.0 | 0.00 | 0.00 | 0.00 | 96 | |
| 20260510105159 | 53 | 300 | 0.0 | 0.0 | 0.00 | 0.00 | 0.00 | 96 | |
| 20260510105006 | 53 | 301 | 0.0 | 0.0 | 0.00 | 0.00 | 0.00 | 96 | |
| 20260510104758 | 53 | 300 | 0.0 | 0.0 | 0.00 | 0.00 | 0.00 | 96 | |
| 20260510104558 | 53 | 301 | 0.0 | 0.0 | 0.00 | 0.00 | 0.00 | 96 | |
| 20260510104358 | 53 | 301 | 0.0 | 0.0 | 0.00 | 0.00 | 0.00 | 96 | |
| 20260510104159 | 53 | 301 | 0.0 | 0.0 | 0.00 | 0.00 | 0.00 | 96 | |
| 20260510103959 | 53 | 301 | 0.0 | 1.0 | 0.00 | 0.00 | 0.00 | 96 | |
| 20260510103759 | 53 | 300 | 0.0 | 2.0 | 0.00 | 0.00 | 0.00 | 96 | |
| 20260510103558 | 53 | 300 | 0.0 | 2.0 | 0.00 | 0.00 | 0.00 | 96 | |
| 20260510103359 | 53 | 301 | 0.0 | 2.0 | 0.00 | 0.00 | 0.00 | 96 | |
| 20260510103159 | 53 | 301 | 0.0 | 2.0 | 0.00 | 0.00 | 0.00 | 96 | |
| 20260510102959 | 53 | 300 | 1.0 | 2.0 | 0.00 | 0.00 | 0.00 | 96 | |
| 20260510102758 | 53 | 301 | 0.0 | 0.0 | 0.00 | 0.00 | 0.00 | 96 | |
| 20260510102557 | 53 | 301 | 0.0 | 1.0 | 0.00 | 0.00 | 0.00 | 96 | |
| 20260510102359 | 53 | 300 | 0.0 | 1.0 | 0.00 | 0.00 | 0.00 | 96 | |
| 20260510102159 | 53 | 301 | 0.0 | 1.0 | 0.00 | 0.00 | 0.00 | 96 | |
| 20260510101758 | 53 | 300 | 0.0 | 1.0 | 0.00 | 0.00 | 0.00 | 96 | |
| 20260510101558 | 53 | 300 | 0.0 | 1.0 | 0.00 | 0.00 | 0.00 | 96 | |
| 20260510101358 | 53 | 301 | 0.0 | 1.0 | 0.00 | 0.00 | 0.00 | 96 | |
| 20260510101000 | 53 | 300 | 0.0 | 1.0 | 0.00 | 0.00 | 0.00 | 95 | |
| 20260510100758 | 53 | 300 | 0.0 | 1.0 | 0.00 | 0.00 | 0.00 | 95 | |
| 20260510100358 | 53 | 300 | 0.0 | 0.0 | 0.00 | 0.00 | 0.00 | 95 | |
| 20260510100158 | 53 | 300 | 0.0 | 0.0 | 0.00 | 0.00 | 0.00 | 95 | |
| 20260510100005 | 53 | 301 | 0.0 | 0.0 | 0.00 | 0.00 | 0.00 | 95 | |
| 20260510095556 | 53 | 300 | 0.0 | 0.0 | 0.00 | 0.00 | 0.00 | 95 | |
| 20260510095157 | 53 | 301 | 0.0 | 0.0 | 0.00 | 0.00 | 0.00 | 95 | |
| 20260510094959 | 53 | 301 | 0.0 | 0.0 | 0.00 | 0.00 | 0.00 | 95 | |
| 20260510094757 | 53 | 301 | 0.0 | 0.0 | 0.00 | 0.00 | 0.00 | 95 | |
| 20260510094557 | 53 | 300 | 0.0 | 0.0 | 0.00 | 0.00 | 0.00 | 95 | |
| 20260510094357 | 53 | 300 | 0.0 | 0.0 | 0.00 | 0.00 | 0.00 | 95 | |
| 20260510094157 | 53 | 300 | 0.0 | 0.0 | 0.00 | 0.00 | 0.00 | 95 | |
| 20260510093958 | 53 | 301 | 0.0 | 0.0 | 0.00 | 0.00 | 0.00 | 95 | |
| 20260510093558 | 53 | 300 | 0.0 | 1.0 | 0.00 | 0.00 | 0.00 | 95 | |
| 20260510093357 | 53 | 300 | 0.0 | 1.0 | 0.00 | 0.00 | 0.00 | 95 | |
| 20260510093158 | 54 | 300 | 0.0 | 1.0 | 0.00 | 0.00 | 0.00 | 95 | |
| 20260510092757 | 54 | 300 | 0.0 | 1.0 | 0.00 | 0.00 | 0.00 | 95 | |
| 20260510092356 | 54 | 301 | 0.0 | 1.0 | 0.00 | 0.00 | 0.00 | 95 | |
| 20260510092157 | 54 | 301 | 0.0 | 0.0 | 0.00 | 0.00 | 0.00 | 95 | |
| 20260510091757 | 54 | 300 | 0.0 | 0.0 | 0.00 | 0.00 | 0.00 | 95 | |
| 20260510091557 | 54 | 301 | 0.0 | 0.0 | 0.00 | 0.00 | 0.00 | 95 | |
| 20260510091357 | 54 | 300 | 0.0 | 1.0 | 0.00 | 0.00 | 0.00 | 96 | |
| 20260510091157 | 54 | 301 | 0.0 | 1.0 | 0.00 | 0.00 | 0.00 | 96 | |
| 20260510091003 | 54 | 301 | 0.0 | 1.0 | 0.00 | 0.00 | 0.00 | 96 | |
| 20260510090757 | 54 | 301 | 0.0 | 1.0 | 0.00 | 0.00 | 0.00 | 96 | |
| 20260510090556 | 54 | 301 | 0.0 | 1.0 | 0.00 | 0.00 | 0.00 | 96 | |
| 20260510090358 | 54 | 301 | 0.0 | 1.0 | 0.00 | 0.00 | 0.00 | 96 | |
| 20260510090157 | 54 | 301 | 0.0 | 2.0 | 0.00 | 0.00 | 0.00 | 96 | |
| 20260510085758 | 54 | 300 | 0.0 | 3.0 | 0.00 | 0.00 | 0.00 | 96 | |
| 20260510085359 | 54 | 301 | 1.0 | 3.0 | 0.00 | 0.00 | 0.00 | 96 | |
| 20260510085159 | 54 | 299 | 1.0 | 3.0 | 0.00 | 0.00 | 0.00 | 96 | |
| 20260510085001 | 54 | 299 | 1.0 | 3.0 | 0.00 | 0.00 | 0.00 | 96 | |
| 20260510084757 | 54 | 226 | 2.0 | 2.0 | 0.00 | 0.00 | 0.00 | 96 | |
| 20260510084559 | 54 | 224 | 1.0 | 2.0 | 0.00 | 0.00 | 0.00 | 96 | |
| 20260510084359 | 54 | 220 | 0.0 | 2.0 | 0.00 | 0.00 | 0.00 | 96 | |
| 20260510084159 | 54 | 219 | 1.0 | 2.0 | 0.00 | 0.00 | 0.00 | 95 | |
| 20260510083959 | 54 | 211 | 0.0 | 2.0 | 0.00 | 0.00 | 0.00 | 95 | |
| 20260510083558 | 54 | 172 | 0.0 | 1.0 | 0.00 | 0.00 | 0.00 | 95 | |
| 20260510083359 | 54 | 171 | 0.0 | 1.0 | 0.00 | 0.00 | 0.00 | 95 | |
| 20260510083158 | 54 | 171 | 0.0 | 1.0 | 0.00 | 0.00 | 0.00 | 95 | |
| 20260510082758 | 54 | 172 | 0.0 | 0.0 | 0.00 | 0.00 | 0.00 | 94 | |
| 20260510082558 | 54 | 172 | 0.0 | 0.0 | 0.00 | 0.00 | 0.00 | 94 | |
| 20260510082400 | 54 | 172 | 0.0 | 0.0 | 0.00 | 0.00 | 0.00 | 94 | |
| 20260510082159 | 54 | 172 | 0.0 | 0.0 | 0.00 | 0.00 | 0.00 | 94 | |
| 20260510082000 | 54 | 172 | 0.0 | 0.0 | 0.00 | 0.00 | 0.00 | 94 | |
| 20260510081800 | 54 | 172 | 0.0 | 1.0 | 0.00 | 0.00 | 0.00 | 94 | |
| 20260510081558 | 54 | 172 | 0.0 | 1.0 | 0.00 | 0.00 | 0.00 | 94 | |
| 20260510081358 | 54 | 172 | 0.0 | 1.0 | 0.00 | 0.00 | 0.00 | 94 | |
| 20260510081158 | 54 | 172 | 0.0 | 1.0 | 0.00 | 0.00 | 0.00 | 94 | |
| 20260510080959 | 54 | 172 | 0.0 | 1.0 | 0.00 | 0.00 | 0.00 | 94 | |
| 20260510080758 | 54 | 172 | 0.0 | 1.0 | 0.00 | 0.00 | 0.00 | 94 | |
| 20260510080558 | 54 | 172 | 0.0 | 1.0 | 0.00 | 0.00 | 0.00 | 94 | |
| 20260510080358 | 54 | 172 | 0.0 | 1.0 | 0.00 | 0.00 | 0.00 | 94 | |
| 20260510080159 | 54 | 172 | 0.0 | 1.0 | 0.00 | 0.00 | 0.00 | 94 | |
| 20260510080002 | 54 | 172 | 0.0 | 1.0 | 0.00 | 0.00 | 0.00 | 95 | |
| 20260510075357 | 54 | 172 | 0.0 | 1.0 | 0.00 | 0.00 | 0.00 | 95 | |
| 20260510075157 | 55 | 172 | 0.0 | 1.0 | 0.00 | 0.00 | 0.00 | 95 | |
| 20260510075000 | 55 | 172 | 0.0 | 1.0 | 0.00 | 0.00 | 0.00 | 95 | |
| 20260510074758 | 55 | 172 | 0.0 | 1.0 | 0.00 | 0.00 | 0.00 | 94 | |
| 20260510074557 | 55 | 172 | 0.0 | 1.0 | 0.00 | 0.00 | 0.00 | 94 | |
| 20260510074357 | 55 | 171 | 0.0 | 0.0 | 0.00 | 0.00 | 0.00 | 94 | |
| 20260510074157 | 55 | 172 | 0.0 | 0.0 | 0.00 | 0.00 | 0.00 | 94 | |
| 20260510073959 | 55 | 172 | 0.0 | 0.0 | 0.00 | 0.00 | 0.00 | 94 | |
| 20260510073558 | 55 | 172 | 0.0 | 0.0 | 0.00 | 0.00 | 0.00 | 94 | |
| 20260510073356 | 55 | 172 | 0.0 | 0.0 | 0.00 | 0.00 | 0.00 | 94 | |
| 20260510073158 | 55 | 172 | 0.0 | 0.0 | 0.00 | 0.00 | 0.00 | 94 | |
| 20260510072958 | 55 | 172 | 0.0 | 0.0 | 0.00 | 0.00 | 0.00 | 94 | |
| 20260510072757 | 55 | 171 | 0.0 | 0.0 | 0.00 | 0.00 | 0.00 | 94 | |
| 20260510072557 | 55 | 172 | 0.0 | 0.0 | 0.00 | 0.00 | 0.00 | 94 | |
| 20260510072357 | 55 | 172 | 0.0 | 0.0 | 0.00 | 0.00 | 0.00 | 94 | |
| 20260510072158 | 55 | 171 | 0.0 | 0.0 | 0.00 | 0.00 | 0.00 | 94 | |
| 20260510071958 | 55 | 172 | 0.0 | 0.0 | 0.00 | 0.00 | 0.00 | 94 | |
| 20260510071756 | 55 | 172 | 0.0 | 0.0 | 0.00 | 0.00 | 0.00 | 94 | |
| 20260510071556 | 55 | 172 | 0.0 | 1.0 | 0.00 | 0.00 | 0.00 | 94 | |
| 20260510071356 | 55 | 172 | 0.0 | 1.0 | 0.00 | 0.00 | 0.00 | 94 | |
| 20260510071157 | 55 | 172 | 0.0 | 1.0 | 0.00 | 0.00 | 0.00 | 94 | |
| 20260510070958 | 55 | 172 | 0.0 | 1.0 | 0.00 | 0.00 | 0.00 | 94 | |
| 20260510070757 | 56 | 172 | 0.0 | 1.0 | 0.00 | 0.00 | 0.00 | 94 | |
| 20260510070557 | 56 | 172 | 0.0 | 1.0 | 0.00 | 0.00 | 0.00 | 94 | |
| 20260510070357 | 56 | 172 | 0.0 | 1.0 | 0.00 | 0.00 | 0.00 | 94 | |
| 20260510065757 | 56 | 172 | 0.0 | 0.0 | 0.00 | 0.00 | 0.00 | 94 | |
| 20260510065556 | 56 | 172 | 0.0 | 0.0 | 0.00 | 0.00 | 0.00 | 94 | |
| 20260510065358 | 56 | 172 | 0.0 | 0.0 | 0.00 | 0.00 | 0.00 | 94 | |
| 20260510065157 | 56 | 172 | 0.0 | 0.0 | 0.00 | 0.00 | 0.00 | 94 | |
| 20260510064958 | 56 | 172 | 0.0 | 0.0 | 0.00 | 0.00 | 0.00 | 94 | |
| 20260510064757 | 56 | 172 | 0.0 | 0.0 | 0.00 | 0.00 | 0.00 | 94 | |
| 20260510064558 | 56 | 172 | 0.0 | 0.0 | 0.00 | 0.00 | 0.00 | 94 | |
| 20260510064157 | 56 | 172 | 0.0 | 0.0 | 0.00 | 0.00 | 0.00 | 94 | |
| 20260510063959 | 56 | 172 | 0.0 | 1.0 | 0.00 | 0.00 | 0.00 | 94 | |
| 20260510063757 | 56 | 172 | 0.0 | 2.0 | 0.00 | 0.00 | 0.00 | 94 | |
| 20260510063357 | 56 | 171 | 0.0 | 2.0 | 0.00 | 0.00 | 0.00 | 94 | |
| 20260510063157 | 56 | 172 | 0.0 | 2.0 | 0.00 | 0.00 | 0.00 | 94 | |
| 20260510062957 | 56 | 172 | 0.0 | 0.0 | 0.00 | 0.00 | 0.00 | 94 | |
| 20260510062756 | 56 | 171 | 0.0 | 0.0 | 0.00 | 0.00 | 0.00 | 93 | |
| 20260510062356 | 56 | 172 | 0.0 | 0.0 | 0.00 | 0.00 | 0.00 | 93 | |
| 20260510062158 | 56 | 172 | 0.0 | 0.0 | 0.00 | 0.00 | 0.00 | 94 | |
| 20260510061958 | 56 | 172 | 0.0 | 0.0 | 0.00 | 0.00 | 0.00 | 93 | |
| 20260510061757 | 56 | 172 | 0.0 | 0.0 | 0.00 | 0.00 | 0.00 | 94 | |
| 20260510061557 | 56 | 172 | 0.0 | 1.0 | 0.00 | 0.00 | 0.00 | 94 | |
| 20260510061357 | 57 | 172 | 0.0 | 1.0 | 0.00 | 0.00 | 0.00 | 94 | |
| 20260510061157 | 57 | 172 | 0.0 | 2.0 | 0.00 | 0.00 | 0.00 | 93 | |
| 20260510060958 | 57 | 172 | 0.0 | 2.0 | 0.00 | 0.00 | 0.00 | 93 | |
| 20260510060758 | 57 | 172 | 0.0 | 2.0 | 0.00 | 0.00 | 0.00 | 93 | |
| 20260510060358 | 57 | 172 | 1.0 | 2.0 | 0.00 | 0.00 | 0.00 | 93 | |
| 20260510060158 | 57 | 171 | 0.0 | 1.0 | 0.00 | 0.00 | 0.00 | 93 | |
| 20260510055958 | 57 | 171 | 0.0 | 1.0 | 0.00 | 0.00 | 0.00 | 93 | |
| 20260510055757 | 57 | 171 | 0.0 | 1.0 | 0.00 | 0.00 | 0.00 | 93 | |
| 20260510055557 | 57 | 170 | 0.0 | 0.0 | 0.00 | 0.00 | 0.00 | 93 | |
| 20260510055357 | 57 | 171 | 0.0 | 0.0 | 0.00 | 0.00 | 0.00 | 93 | |
| 20260510054957 | 57 | 170 | 0.0 | 0.0 | 0.00 | 0.00 | 0.00 | 93 | |
| 20260510054556 | 57 | 171 | 0.0 | 0.0 | 0.00 | 0.00 | 0.00 | 93 | |
| 20260510054157 | 57 | 171 | 0.0 | 0.0 | 0.00 | 0.00 | 0.00 | 93 | |
| 20260510053959 | 57 | 170 | 0.0 | 0.0 | 0.00 | 0.00 | 0.00 | 93 | |
| 20260510053758 | 57 | 171 | 0.0 | 0.0 | 0.00 | 0.00 | 0.00 | 93 | |
| 20260510053358 | 57 | 171 | 0.0 | 0.0 | 0.00 | 0.00 | 0.00 | 93 | |
| 20260510053157 | 57 | 171 | 0.0 | 0.0 | 0.00 | 0.00 | 0.00 | 92 | |
| 20260510052557 | 58 | 171 | 0.0 | 0.0 | 0.00 | 0.00 | 0.00 | 92 | |
| 20260510052356 | 58 | 171 | 0.0 | 0.0 | 0.00 | 0.00 | 0.00 | 92 | |
| 20260510052156 | 58 | 170 | 0.0 | 0.0 | 0.00 | 0.00 | 0.00 | 92 | |
| 20260510051958 | 58 | 171 | 0.0 | 0.0 | 0.00 | 0.00 | 0.00 | 92 | |
| 20260510051757 | 58 | 171 | 0.0 | 0.0 | 0.00 | 0.00 | 0.00 | 92 | |
| 20260510051558 | 58 | 170 | 0.0 | 0.0 | 0.00 | 0.00 | 0.00 | 92 | |
| 20260510051357 | 58 | 171 | 0.0 | 0.0 | 0.00 | 0.00 | 0.00 | 92 | |
| 20260510051156 | 58 | 171 | 0.0 | 0.0 | 0.00 | 0.00 | 0.00 | 92 | |
| 20260510050959 | 58 | 171 | 0.0 | 0.0 | 0.00 | 0.00 | 0.00 | 92 | |
| 20260510050757 | 58 | 171 | 0.0 | 0.0 | 0.00 | 0.00 | 0.00 | 92 | |
| 20260510050557 | 58 | 171 | 0.0 | 0.0 | 0.00 | 0.00 | 0.00 | 92 | |
| 20260510050357 | 58 | 171 | 0.0 | 0.0 | 0.00 | 0.00 | 0.00 | 91 | |
| 20260510050005 | 58 | 171 | 0.0 | 0.0 | 0.00 | 0.00 | 0.00 | 91 | |
| 20260510045759 | 58 | 171 | 0.0 | 1.0 | 0.00 | 0.00 | 0.00 | 92 | |
| 20260510045558 | 58 | 170 | 0.0 | 1.0 | 0.00 | 0.00 | 0.00 | 91 | |
| 20260510045358 | 58 | 171 | 0.0 | 1.0 | 0.00 | 0.00 | 0.00 | 91 | |
| 20260510045158 | 58 | 171 | 0.0 | 1.0 | 0.00 | 0.00 | 0.00 | 91 | |
| 20260510045000 | 58 | 170 | 0.0 | 0.0 | 0.00 | 0.00 | 0.00 | 91 | |
| 20260510044757 | 59 | 171 | 0.0 | 0.0 | 0.00 | 0.00 | 0.00 | 91 | |
| 20260510044558 | 59 | 171 | 0.0 | 0.0 | 0.00 | 0.00 | 0.00 | 91 | |
| 20260510044358 | 59 | 171 | 0.0 | 0.0 | 0.00 | 0.00 | 0.00 | 91 | |
| 20260510044159 | 59 | 170 | 0.0 | 0.0 | 0.00 | 0.00 | 0.00 | 91 | |
| 20260510044004 | 59 | 170 | 0.0 | 0.0 | 0.00 | 0.00 | 0.00 | 91 | |
| 20260510043558 | 59 | 171 | 0.0 | 1.0 | 0.00 | 0.00 | 0.00 | 91 | |
| 20260510043357 | 59 | 171 | 0.0 | 1.0 | 0.00 | 0.00 | 0.00 | 91 | |
| 20260510042959 | 59 | 171 | 0.0 | 1.0 | 0.00 | 0.00 | 0.00 | 90 | |
| 20260510042758 | 59 | 171 | 0.0 | 1.0 | 0.00 | 0.00 | 0.00 | 90 | |
| 20260510042558 | 59 | 171 | 0.0 | 0.0 | 0.00 | 0.00 | 0.00 | 90 | |
| 20260510042359 | 59 | 171 | 0.0 | 0.0 | 0.00 | 0.00 | 0.00 | 90 | |
| 20260510041759 | 59 | 171 | 0.0 | 0.0 | 0.00 | 0.00 | 0.00 | 90 | |
| 20260510041558 | 59 | 171 | 0.0 | 0.0 | 0.00 | 0.00 | 0.00 | 90 | |
| 20260510041358 | 59 | 171 | 0.0 | 0.0 | 0.00 | 0.00 | 0.00 | 90 | |
| 20260510041159 | 59 | 172 | 0.0 | 0.0 | 0.00 | 0.00 | 0.00 | 89 | |
| 20260510041000 | 59 | 171 | 0.0 | 0.0 | 0.00 | 0.00 | 0.00 | 89 | |
| 20260510040758 | 60 | 171 | 0.0 | 0.0 | 0.00 | 0.00 | 0.00 | 89 | |
| 20260510040557 | 60 | 171 | 0.0 | 0.0 | 0.00 | 0.00 | 0.00 | 88 | |
| 20260510040359 | 60 | 170 | 0.0 | 0.0 | 0.00 | 0.00 | 0.00 | 88 | |
| 20260510040158 | 60 | 171 | 0.0 | 0.0 | 0.00 | 0.00 | 0.00 | 89 | |
| 20260510040004 | 60 | 171 | 0.0 | 0.0 | 0.00 | 0.00 | 0.00 | 88 | |
| 20260510035757 | 60 | 170 | 0.0 | 0.0 | 0.00 | 0.00 | 0.00 | 88 | |
| 20260510035559 | 60 | 170 | 0.0 | 0.0 | 0.00 | 0.00 | 0.00 | 88 | |
| 20260510034758 | 60 | 171 | 0.0 | 0.0 | 0.00 | 0.00 | 0.00 | 87 | |
| 20260510034557 | 60 | 171 | 0.0 | 0.0 | 0.00 | 0.00 | 0.00 | 86 | |
| 20260510034358 | 60 | 170 | 0.0 | 0.0 | 0.00 | 0.00 | 0.00 | 86 | |
| 20260510034158 | 60 | 171 | 0.0 | 0.0 | 0.00 | 0.00 | 0.00 | 86 | |
| 20260510033959 | 60 | 170 | 0.0 | 0.0 | 0.00 | 0.00 | 0.00 | 86 | |
| 20260510033758 | 60 | 171 | 0.0 | 0.0 | 0.00 | 0.00 | 0.00 | 86 | |
| 20260510033357 | 61 | 170 | 0.0 | 0.0 | 0.00 | 0.00 | 0.00 | 86 | |
| 20260510033158 | 61 | 171 | 0.0 | 0.0 | 0.00 | 0.00 | 0.00 | 86 | |
| 20260510033002 | 61 | 170 | 0.0 | 0.0 | 0.00 | 0.00 | 0.00 | 86 | |
| 20260510032758 | 61 | 171 | 0.0 | 0.0 | 0.00 | 0.00 | 0.00 | 86 | |
| 20260510032558 | 61 | 171 | 0.0 | 0.0 | 0.00 | 0.00 | 0.00 | 85 | |
| 20260510032359 | 61 | 171 | 0.0 | 0.0 | 0.00 | 0.00 | 0.00 | 85 | |
| 20260510032158 | 61 | 171 | 0.0 | 0.0 | 0.00 | 0.00 | 0.00 | 85 | |
| 20260510031558 | 61 | 171 | 0.0 | 0.0 | 0.00 | 0.00 | 0.00 | 85 | |
| 20260510031358 | 61 | 171 | 0.0 | 0.0 | 0.00 | 0.00 | 0.00 | 85 | |
| 20260510031158 | 61 | 171 | 0.0 | 0.0 | 0.00 | 0.00 | 0.00 | 85 | |
| 20260510031000 | 62 | 170 | 0.0 | 0.0 | 0.00 | 0.00 | 0.00 | 85 | |
| 20260510030758 | 62 | 171 | 0.0 | 0.0 | 0.00 | 0.00 | 0.00 | 85 | |
| 20260510030359 | 62 | 171 | 0.0 | 0.0 | 0.00 | 0.00 | 0.00 | 85 | |
| 20260510030158 | 62 | 171 | 0.0 | 0.0 | 0.00 | 0.00 | 0.00 | 85 | |
| 20260510025957 | 62 | 171 | 0.0 | 0.0 | 0.00 | 0.00 | 0.00 | 85 | |
| 20260510025757 | 62 | 170 | 0.0 | 0.0 | 0.00 | 0.00 | 0.00 | 85 | |
| 20260510024958 | 62 | 171 | 0.0 | 0.0 | 0.00 | 0.00 | 0.00 | 85 | |
| 20260510024557 | 62 | 171 | 0.0 | 0.0 | 0.00 | 0.00 | 0.00 | 86 | |
| 20260510024357 | 62 | 171 | 0.0 | 0.0 | 0.00 | 0.00 | 0.00 | 86 | |
| 20260510024157 | 62 | 171 | 0.0 | 0.0 | 0.00 | 0.00 | 0.00 | 86 | |
| 20260510023958 | 62 | 170 | 0.0 | 0.0 | 0.00 | 0.00 | 0.00 | 86 | |
| 20260510023757 | 62 | 171 | 0.0 | 0.0 | 0.00 | 0.00 | 0.00 | 86 | |
| 20260510023557 | 62 | 171 | 0.0 | 0.0 | 0.00 | 0.00 | 0.00 | 86 | |
| 20260510023156 | 62 | 171 | 0.0 | 1.0 | 0.00 | 0.00 | 0.00 | 87 | |
| 20260510023006 | 62 | 171 | 0.0 | 1.0 | 0.00 | 0.00 | 0.00 | 87 | |
| 20260510022757 | 63 | 171 | 0.0 | 1.0 | 0.00 | 0.00 | 0.00 | 87 | |
| 20260510022558 | 63 | 170 | 0.0 | 0.0 | 0.00 | 0.00 | 0.00 | 87 | |
| 20260510022357 | 63 | 171 | 0.0 | 1.0 | 0.00 | 0.00 | 0.00 | 87 | |
| 20260510022157 | 63 | 171 | 0.0 | 1.0 | 0.00 | 0.00 | 0.00 | 87 | |
| 20260510021757 | 63 | 171 | 0.0 | 1.0 | 0.00 | 0.00 | 0.00 | 86 | |
| 20260510021557 | 63 | 171 | 0.0 | 1.0 | 0.00 | 0.00 | 0.00 | 86 | |
| 20260510021401 | 63 | 171 | 0.0 | 1.0 | 0.00 | 0.00 | 0.00 | 86 | |
| 20260510020959 | 63 | 171 | 0.0 | 0.0 | 0.00 | 0.00 | 0.00 | 85 | |
| 20260510020757 | 63 | 171 | 0.0 | 0.0 | 0.00 | 0.00 | 0.00 | 85 | |
| 20260510020556 | 63 | 171 | 0.0 | 0.0 | 0.00 | 0.00 | 0.00 | 85 | |
| 20260510020357 | 63 | 171 | 0.0 | 0.0 | 0.00 | 0.00 | 0.00 | 85 | |
| 20260510020157 | 63 | 171 | 0.0 | 0.0 | 0.00 | 0.00 | 0.00 | 85 | |
| 20260510020002 | 63 | 171 | 0.0 | 0.0 | 0.00 | 0.00 | 0.00 | 85 | |
| 20260510015758 | 63 | 171 | 0.0 | 0.0 | 0.00 | 0.00 | 0.00 | 85 | |
| 20260510015559 | 63 | 171 | 0.0 | 0.0 | 0.00 | 0.00 | 0.00 | 84 | |
| 20260510015358 | 63 | 171 | 0.0 | 0.0 | 0.00 | 0.00 | 0.00 | 84 | |
| 20260510015157 | 63 | 171 | 0.0 | 0.0 | 0.00 | 0.00 | 0.00 | 84 | |
| 20260510015000 | 63 | 171 | 0.0 | 0.0 | 0.00 | 0.00 | 0.00 | 84 | |
| 20260510014758 | 63 | 170 | 0.0 | 0.0 | 0.00 | 0.00 | 0.00 | 84 | |
| 20260510014558 | 63 | 170 | 0.0 | 0.0 | 0.00 | 0.00 | 0.00 | 84 | |
| 20260510014358 | 63 | 170 | 0.0 | 0.0 | 0.00 | 0.00 | 0.00 | 84 | |
| 20260510013959 | 63 | 171 | 0.0 | 0.0 | 0.00 | 0.00 | 0.00 | 84 | |
| 20260510013758 | 63 | 171 | 0.0 | 0.0 | 0.00 | 0.00 | 0.00 | 84 | |
| 20260510013558 | 63 | 171 | 0.0 | 0.0 | 0.00 | 0.00 | 0.00 | 84 | |
| 20260510013357 | 63 | 171 | 0.0 | 0.0 | 0.00 | 0.00 | 0.00 | 84 | |
| 20260510013158 | 63 | 170 | 0.0 | 0.0 | 0.00 | 0.00 | 0.00 | 84 | |
| 20260510013000 | 63 | 170 | 0.0 | 0.0 | 0.00 | 0.00 | 0.00 | 84 | |
| 20260510012759 | 63 | 171 | 0.0 | 0.0 | 0.00 | 0.00 | 0.00 | 84 | |
| 20260510012558 | 63 | 171 | 0.0 | 0.0 | 0.00 | 0.00 | 0.00 | 84 | |
| 20260510012357 | 64 | 170 | 0.0 | 0.0 | 0.00 | 0.00 | 0.00 | 84 | |
| 20260510012159 | 64 | 171 | 0.0 | 0.0 | 0.00 | 0.00 | 0.00 | 84 | |
| 20260510012001 | 64 | 170 | 0.0 | 0.0 | 0.00 | 0.00 | 0.00 | 84 | |
| 20260510011758 | 64 | 171 | 0.0 | 0.0 | 0.00 | 0.00 | 0.00 | 83 | |
| 20260510011558 | 64 | 171 | 0.0 | 0.0 | 0.00 | 0.00 | 0.00 | 83 | |
| 20260510011357 | 64 | 170 | 0.0 | 0.0 | 0.00 | 0.00 | 0.00 | 83 | |
| 20260510011159 | 64 | 170 | 0.0 | 0.0 | 0.00 | 0.00 | 0.00 | 82 | |
| 20260510011000 | 64 | 170 | 0.0 | 0.0 | 0.00 | 0.00 | 0.00 | 81 | |
| 20260510010758 | 64 | 170 | 0.0 | 0.0 | 0.00 | 0.00 | 0.00 | 81 | |
| 20260510010600 | 64 | 171 | 0.0 | 0.0 | 0.00 | 0.00 | 0.00 | 81 | |
| 20260510010358 | 64 | 171 | 0.0 | 0.0 | 0.00 | 0.00 | 0.00 | 81 | |
| 20260510010159 | 64 | 171 | 0.0 | 0.0 | 0.00 | 0.00 | 0.00 | 81 | |
| 20260510010005 | 64 | 170 | 0.0 | 0.0 | 0.00 | 0.00 | 0.00 | 81 | |
| 20260510005759 | 64 | 170 | 0.0 | 0.0 | 0.00 | 0.00 | 0.00 | 81 | |
| 20260510005558 | 64 | 170 | 0.0 | 0.0 | 0.00 | 0.00 | 0.00 | 81 | |
| 20260510005359 | 64 | 170 | 0.0 | 0.0 | 0.00 | 0.00 | 0.00 | 81 | |
| 20260510004757 | 65 | 171 | 0.0 | 0.0 | 0.00 | 0.00 | 0.00 | 81 | |
| 20260510004559 | 65 | 171 | 0.0 | 0.0 | 0.00 | 0.00 | 0.00 | 80 | |
| 20260510004358 | 65 | 171 | 0.0 | 0.0 | 0.00 | 0.00 | 0.00 | 80 | |
| 20260510003958 | 65 | 171 | 0.0 | 0.0 | 0.00 | 0.00 | 0.00 | 80 | |
| 20260510003757 | 65 | 171 | 0.0 | 0.0 | 0.00 | 0.00 | 0.00 | 80 | |
| 20260510003558 | 65 | 170 | 0.0 | 0.0 | 0.00 | 0.00 | 0.00 | 80 | |
| 20260510003358 | 65 | 171 | 0.0 | 0.0 | 0.00 | 0.00 | 0.00 | 80 | |
| 20260510003158 | 66 | 171 | 0.0 | 0.0 | 0.00 | 0.00 | 0.00 | 79 | |
| 20260510003000 | 66 | 171 | 0.0 | 0.0 | 0.00 | 0.00 | 0.00 | 79 | |
| 20260510002758 | 66 | 170 | 0.0 | 0.0 | 0.00 | 0.00 | 0.00 | 79 | |
| 20260510002559 | 66 | 171 | 0.0 | 0.0 | 0.00 | 0.00 | 0.00 | 78 | |
| 20260510002359 | 66 | 171 | 0.0 | 0.0 | 0.00 | 0.00 | 0.00 | 78 | |
| 20260510001758 | 66 | 171 | 0.0 | 1.0 | 0.00 | 0.00 | 0.00 | 77 | |
| 20260510001557 | 66 | 171 | 0.0 | 1.0 | 0.00 | 0.00 | 0.00 | 77 | |
| 20260510001357 | 66 | 171 | 0.0 | 1.0 | 0.00 | 0.00 | 0.00 | 77 | |
| 20260510001158 | 67 | 170 | 0.0 | 1.0 | 0.00 | 0.00 | 0.00 | 76 | |
| 20260510000758 | 67 | 170 | 0.0 | 0.0 | 0.00 | 0.00 | 0.00 | 75 | |
| 20260510000558 | 67 | 171 | 0.0 | 0.0 | 0.00 | 0.00 | 0.00 | 75 | |
| 20260510000359 | 67 | 171 | 0.0 | 0.0 | 0.00 | 0.00 | 0.00 | 74 | |
| 20260510000157 | 67 | 171 | 0.0 | 0.0 | 0.00 | 0.00 | 0.00 | 73 | |
| 20260510000002 | 67 | 170 | 0.0 | 0.0 | 0.00 | 0.00 | 0.00 | 73 | |
| 20260509235757 | 67 | 170 | 0.0 | 0.0 | 0.00 | 0.00 | 0.00 | 72 | |
| 20260509235558 | 67 | 171 | 0.0 | 0.0 | 0.00 | 0.00 | 0.00 | 72 | |
| 20260509235358 | 67 | 171 | 0.0 | 0.0 | 0.00 | 0.00 | 0.00 | 72 | |
| 20260509235158 | 67 | 171 | 0.0 | 0.0 | 0.00 | 0.00 | 0.00 | 71 | |
| 20260509234959 | 67 | 171 | 0.0 | 0.0 | 0.00 | 0.00 | 0.00 | 71 | |
| 20260509234758 | 68 | 171 | 0.0 | 1.0 | 0.00 | 0.00 | 0.00 | 71 | |
| 20260509234358 | 68 | 171 | 0.0 | 1.0 | 0.00 | 0.00 | 0.00 | 71 | |
| 20260509234159 | 68 | 171 | 0.0 | 1.0 | 0.00 | 0.00 | 0.00 | 71 | |
| 20260509234004 | 68 | 170 | 0.0 | 1.0 | 0.00 | 0.00 | 0.00 | 70 | |
| 20260509233757 | 68 | 171 | 0.0 | 4.0 | 0.00 | 0.00 | 0.00 | 70 | |
| 20260509233600 | 68 | 171 | 0.0 | 5.0 | 0.00 | 0.00 | 0.00 | 70 | |
| 20260509233358 | 68 | 170 | 0.0 | 5.0 | 0.00 | 0.00 | 0.00 | 70 | |
| 20260509233159 | 68 | 171 | 0.0 | 5.0 | 0.00 | 0.00 | 0.00 | 69 | |
| 20260509232757 | 69 | 121 | 1.0 | 3.0 | 0.00 | 0.00 | 0.00 | 69 | |
| 20260509232557 | 69 | 106 | 0.0 | 3.0 | 0.00 | 0.00 | 0.00 | 69 | |
| 20260509232358 | 69 | 106 | 1.0 | 5.0 | 0.00 | 0.00 | 0.00 | 69 | |
| 20260509232158 | 69 | 182 | 1.0 | 5.0 | 0.00 | 0.00 | 0.00 | 68 | |
| 20260509231758 | 69 | 187 | 2.0 | 5.0 | 0.00 | 0.00 | 0.00 | 68 | |
| 20260509231358 | 69 | 166 | 2.0 | 5.0 | 0.00 | 0.00 | 0.00 | 67 | |
| 20260509231157 | 69 | 134 | 1.0 | 5.0 | 0.00 | 0.00 | 0.00 | 67 | |
| 20260509230559 | 70 | 147 | 0.0 | 2.0 | 0.00 | 0.00 | 0.00 | 68 | |
| 20260509230359 | 70 | 147 | 0.0 | 2.0 | 0.00 | 0.00 | 0.00 | 68 | |
| 20260509230158 | 70 | 147 | 0.0 | 3.0 | 0.00 | 0.00 | 0.00 | 68 | |
| 20260509225959 | 70 | 147 | 0.0 | 3.0 | 0.00 | 0.00 | 0.00 | 67 | |
| 20260509225800 | 70 | 137 | 0.0 | 3.0 | 0.00 | 0.00 | 0.00 | 67 | |
| 20260509225557 | 70 | 135 | 1.0 | 6.0 | 0.00 | 0.00 | 0.00 | 67 | |
| 20260509225358 | 70 | 136 | 1.0 | 6.0 | 0.00 | 0.00 | 0.00 | 67 | |
| 20260509224959 | 70 | 170 | 0.0 | 6.0 | 0.00 | 0.00 | 0.00 | 67 | |
| 20260509224758 | 70 | 170 | 2.0 | 6.0 | 0.00 | 0.00 | 0.00 | 67 | |
| 20260509224358 | 70 | 169 | 0.0 | 5.0 | 0.00 | 0.00 | 0.00 | 67 | |
| 20260509224158 | 70 | 169 | 0.0 | 5.0 | 0.00 | 0.00 | 0.00 | 66 | |
| 20260509223959 | 70 | 169 | 1.0 | 5.0 | 0.00 | 0.00 | 0.00 | 66 | |
| 20260509223758 | 71 | 169 | 3.0 | 6.0 | 0.00 | 0.00 | 0.00 | 65 | |
| 20260509223557 | 71 | 181 | 1.0 | 6.0 | 0.00 | 0.00 | 0.00 | 66 | |
| 20260509223358 | 71 | 186 | 1.0 | 6.0 | 0.00 | 0.00 | 0.00 | 66 | |
| 20260509223158 | 71 | 173 | 2.0 | 6.0 | 0.00 | 0.00 | 0.00 | 66 | |
| 20260509222959 | 71 | 146 | 2.0 | 4.0 | 0.00 | 0.00 | 0.00 | 65 | |
| 20260509222757 | 71 | 204 | 1.0 | 5.0 | 0.00 | 0.00 | 0.00 | 66 | |
| 20260509222559 | 71 | 204 | 1.0 | 5.0 | 0.00 | 0.00 | 0.00 | 65 | |
| 20260509222359 | 71 | 229 | 1.0 | 5.0 | 0.00 | 0.00 | 0.00 | 66 | |
| 20260509222157 | 71 | 165 | 2.0 | 5.0 | 0.00 | 0.00 | 0.00 | 66 | |
| 20260509222000 | 71 | 166 | 2.0 | 4.0 | 0.00 | 0.00 | 0.00 | 67 | |
| 20260509221800 | 71 | 217 | 1.0 | 3.0 | 0.00 | 0.00 | 0.00 | 67 | |
| 20260509221558 | 71 | 170 | 0.0 | 4.0 | 0.00 | 0.00 | 0.00 | 67 | |
| 20260509221159 | 71 | 170 | 0.0 | 4.0 | 0.00 | 0.00 | 0.00 | 67 | |
| 20260509221000 | 71 | 170 | 0.0 | 4.0 | 0.00 | 0.00 | 0.00 | 67 | |
| 20260509220757 | 71 | 170 | 2.0 | 4.0 | 0.00 | 0.00 | 0.00 | 66 | |
| 20260509220557 | 71 | 179 | 0.0 | 3.0 | 0.00 | 0.00 | 0.00 | 67 | |
| 20260509220358 | 71 | 183 | 1.0 | 4.0 | 0.00 | 0.00 | 0.00 | 67 | |
| 20260509220157 | 71 | 195 | 0.0 | 4.0 | 0.00 | 0.00 | 0.00 | 66 | |
| 20260509215556 | 72 | 100 | 0.0 | 2.0 | 0.00 | 0.00 | 0.00 | 67 | |
| 20260509215356 | 72 | 101 | 0.0 | 2.0 | 0.00 | 0.00 | 0.00 | 66 | |
| 20260509215157 | 72 | 101 | 1.0 | 2.0 | 0.00 | 0.00 | 0.00 | 66 | |
| 20260509214958 | 72 | 90 | 1.0 | 2.0 | 0.00 | 0.00 | 0.00 | 66 | |
| 20260509214357 | 72 | 48 | 1.0 | 2.0 | 0.00 | 0.00 | 0.00 | 66 | |
| 20260509214157 | 72 | 48 | 0.0 | 1.0 | 0.00 | 0.00 | 0.00 | 66 | |
| 20260509213958 | 72 | 47 | 0.0 | 2.0 | 0.00 | 0.00 | 0.00 | 65 | |
| 20260509213758 | 72 | 47 | 0.0 | 3.0 | 0.00 | 0.00 | 0.00 | 66 | |
| 20260509213556 | 72 | 48 | 0.0 | 3.0 | 0.00 | 0.00 | 0.00 | 66 | |
| 20260509213358 | 72 | 47 | 0.0 | 4.0 | 0.00 | 0.00 | 0.00 | 66 | |
| 20260509213000 | 72 | 48 | 0.0 | 4.0 | 0.00 | 0.00 | 0.00 | 67 | |
| 20260509212600 | 72 | 40 | 1.0 | 4.0 | 0.00 | 0.00 | 0.00 | 68 | |
| 20260509212357 | 72 | 45 | 1.0 | 4.0 | 0.00 | 0.00 | 0.00 | 67 | |
| 20260509212156 | 72 | 59 | 0.0 | 4.0 | 0.00 | 0.00 | 0.00 | 67 | |
| 20260509211958 | 73 | 59 | 0.0 | 4.0 | 0.00 | 0.00 | 0.00 | 67 | |
| 20260509211757 | 73 | 59 | 1.0 | 4.0 | 0.00 | 0.00 | 0.00 | 67 | |
| 20260509211557 | 73 | 36 | 1.0 | 3.0 | 0.00 | 0.00 | 0.00 | 67 | |
| 20260509211357 | 73 | 50 | 0.0 | 1.0 | 0.00 | 0.00 | 0.00 | 67 | |
| 20260509211157 | 73 | 50 | 0.0 | 3.0 | 0.00 | 0.00 | 0.00 | 65 | |
| 20260509210757 | 73 | 74 | 0.0 | 3.0 | 0.00 | 0.00 | 0.00 | 66 | |
| 20260509210558 | 72 | 75 | 0.0 | 3.0 | 0.00 | 0.00 | 0.00 | 66 | |
| 20260509210357 | 72 | 74 | 0.0 | 3.0 | 0.00 | 0.00 | 0.00 | 65 | |
| 20260509210158 | 72 | 90 | 0.0 | 2.0 | 0.00 | 0.00 | 0.00 | 64 | |
| 20260509205958 | 72 | 102 | 0.0 | 2.0 | 0.00 | 0.00 | 0.00 | 65 | |
| 20260509205557 | 72 | 109 | 0.0 | 2.0 | 0.00 | 0.00 | 0.00 | 65 | |
| 20260509205357 | 72 | 50 | 1.0 | 2.0 | 0.00 | 0.00 | 0.00 | 66 | |
| 20260509205157 | 72 | 34 | 0.0 | 2.0 | 0.00 | 0.00 | 0.00 | 67 | |
| 20260509204959 | 72 | 34 | 1.0 | 3.0 | 0.00 | 0.00 | 0.00 | 69 | |
| 20260509204757 | 72 | 35 | 0.0 | 3.0 | 0.00 | 0.00 | 0.00 | 69 | |
| 20260509204556 | 72 | 34 | 0.0 | 3.0 | 0.00 | 0.00 | 0.00 | 68 | |
| 20260509204358 | 72 | 34 | 1.0 | 3.0 | 0.00 | 0.00 | 0.00 | 69 | |
| 20260509204157 | 72 | 47 | 1.0 | 3.0 | 0.00 | 0.00 | 0.00 | 70 | |
| 20260509203755 | 72 | 37 | 0.0 | 2.0 | 0.00 | 0.00 | 0.00 | 68 | |
| 20260509203557 | 72 | 70 | 0.0 | 1.0 | 0.00 | 0.00 | 0.00 | 69 | |
| 20260509203357 | 72 | 76 | 0.0 | 3.0 | 0.00 | 0.00 | 0.00 | 69 | |
| 20260509203156 | 72 | 75 | 0.0 | 3.0 | 0.00 | 0.00 | 0.00 | 69 | |
| 20260509202959 | 72 | 77 | 0.0 | 3.0 | 0.00 | 0.00 | 0.00 | 68 | |
| 20260509202757 | 72 | 79 | 0.0 | 3.0 | 0.00 | 0.00 | 0.00 | 68 | |
| 20260509202557 | 72 | 79 | 0.0 | 3.0 | 0.00 | 0.00 | 0.00 | 69 | |
| 20260509202358 | 71 | 20 | 0.0 | 3.0 | 0.00 | 0.00 | 0.00 | 70 | |
| 20260509202157 | 71 | 21 | 1.0 | 3.0 | 0.00 | 0.00 | 0.00 | 70 | |
| 20260509201958 | 71 | 15 | 1.0 | 2.0 | 0.00 | 0.00 | 0.00 | 69 | |
| 20260509201757 | 71 | 10 | 0.0 | 1.0 | 0.00 | 0.00 | 0.00 | 69 | |
| 20260509201556 | 71 | 8 | 0.0 | 1.0 | 0.00 | 0.00 | 0.00 | 69 | |
| 20260509201357 | 71 | 8 | 0.0 | 1.0 | 0.00 | 0.00 | 0.00 | 69 | |
| 20260509201156 | 71 | 8 | 0.0 | 1.0 | 0.00 | 0.00 | 0.00 | 69 | |
| 20260509200958 | 71 | 8 | 0.0 | 1.0 | 0.00 | 0.00 | 0.00 | 68 | |
| 20260509200758 | 71 | 4 | 0.0 | 1.0 | 0.00 | 0.00 | 0.00 | 71 | |
| 20260509200557 | 71 | 8 | 0.0 | 1.0 | 0.00 | 0.00 | 0.00 | 70 | |
| 20260509195758 | 70 | 4 | 0.0 | 2.0 | 0.00 | 0.00 | 0.00 | 73 | |
| 20260509195557 | 70 | 4 | 0.0 | 3.0 | 0.00 | 0.00 | 0.00 | 72 | |
| 20260509195358 | 71 | 8 | 0.0 | 3.0 | 0.00 | 0.00 | 0.00 | 72 | |
| 20260509195157 | 71 | 4 | 0.0 | 3.0 | 0.00 | 0.00 | 0.00 | 72 | |
| 20260509195000 | 71 | 4 | 1.0 | 3.0 | 0.00 | 0.00 | 0.00 | 72 | |
| 20260509194758 | 71 | 4 | 2.0 | 3.0 | 0.00 | 0.00 | 0.00 | 72 | |
| 20260509194559 | 71 | 4 | 1.0 | 2.0 | 0.00 | 0.00 | 0.00 | 73 | |
| 20260509194359 | 71 | 8 | 1.0 | 3.0 | 0.00 | 0.00 | 0.00 | 73 | |
| 20260509194157 | 71 | 8 | 1.0 | 3.0 | 0.00 | 0.00 | 0.00 | 72 | |
| 20260509193959 | 71 | 8 | 1.0 | 3.0 | 0.00 | 0.00 | 0.00 | 74 | |
| 20260509193758 | 70 | 4 | 1.0 | 3.0 | 0.00 | 0.00 | 0.00 | 71 | |
| 20260509193602 | 70 | 8 | 1.0 | 3.0 | 0.00 | 0.00 | 0.00 | 71 | |
| 20260509193158 | 70 | 4 | 1.0 | 2.0 | 0.00 | 0.00 | 0.00 | 72 | |
| 20260509193000 | 70 | 4 | 0.0 | 4.0 | 0.00 | 0.00 | 0.00 | 71 | |
| 20260509192758 | 70 | 4 | 0.0 | 4.0 | 0.00 | 0.00 | 0.00 | 73 | |
| 20260509192557 | 70 | 8 | 1.0 | 4.0 | 0.00 | 0.00 | 0.00 | 74 | |
| 20260509192358 | 70 | 4 | 2.0 | 4.0 | 0.00 | 0.00 | 0.00 | 73 | |
| 20260509192158 | 70 | 53 | 1.0 | 2.0 | 0.00 | 0.00 | 0.00 | 74 | |
| 20260509192000 | 70 | 100 | 0.0 | 1.0 | 0.00 | 0.00 | 0.00 | 74 | |
| 20260509191758 | 69 | 100 | 0.0 | 3.0 | 0.00 | 0.00 | 0.00 | 73 | |
| 20260509191558 | 69 | 29 | 0.0 | 3.0 | 0.00 | 0.00 | 0.00 | 73 | |
| 20260509191357 | 69 | 29 | 0.0 | 3.0 | 0.00 | 0.00 | 0.00 | 71 | |
| 20260509191158 | 69 | 29 | 0.0 | 3.0 | 0.00 | 0.00 | 0.00 | 70 | |
| 20260509190158 | 70 | 336 | 2.0 | 3.0 | 0.00 | 0.00 | 0.00 | 69 | |
| 20260509190004 | 70 | 249 | 0.0 | 2.0 | 0.00 | 0.00 | 0.00 | 68 | |
| 20260509185758 | 70 | 250 | 0.0 | 4.0 | 0.00 | 0.00 | 0.00 | 66 | |
| 20260509185357 | 70 | 249 | 1.0 | 6.0 | 0.00 | 0.00 | 0.00 | 65 | |
| 20260509185158 | 70 | 242 | 0.0 | 6.0 | 0.00 | 0.00 | 0.00 | 65 | |
| 20260509185000 | 70 | 242 | 1.0 | 6.0 | 0.00 | 0.00 | 0.00 | 64 | |
| 20260509184759 | 71 | 238 | 3.0 | 7.0 | 0.00 | 0.00 | 0.00 | 63 | |
| 20260509184559 | 71 | 236 | 3.0 | 10.0 | 0.00 | 0.00 | 0.00 | 63 | |
| 20260509184358 | 71 | 224 | 2.0 | 10.0 | 0.00 | 0.00 | 0.00 | 63 | |
| 20260509184158 | 71 | 224 | 3.0 | 10.0 | 0.00 | 0.00 | 0.00 | 62 | |
| 20260509183758 | 72 | 229 | 2.0 | 10.0 | 0.00 | 0.00 | 0.00 | 59 | |
| 20260509183559 | 72 | 183 | 2.0 | 5.0 | 0.00 | 0.00 | 0.00 | 59 | |
| 20260509183358 | 72 | 239 | 2.0 | 7.0 | 0.00 | 0.00 | 0.00 | 60 | |
| 20260509183159 | 72 | 235 | 2.0 | 7.0 | 0.00 | 0.00 | 0.00 | 59 | |
| 20260509182759 | 72 | 245 | 4.0 | 7.0 | 0.00 | 0.00 | 0.00 | 57 | |
| 20260509182558 | 73 | 231 | 3.0 | 7.0 | 0.00 | 0.00 | 0.00 | 56 | |
| 20260509182359 | 73 | 243 | 2.0 | 7.0 | 0.00 | 0.00 | 0.00 | 55 | |
| 20260509181958 | 73 | 241 | 2.0 | 6.0 | 0.00 | 0.00 | 0.00 | 56 | |
| 20260509181758 | 73 | 225 | 3.0 | 6.0 | 0.00 | 0.00 | 0.00 | 56 | |
| 20260509181558 | 73 | 228 | 2.0 | 9.0 | 0.00 | 0.00 | 0.00 | 57 | |
| 20260509181358 | 73 | 110 | 3.0 | 9.0 | 0.00 | 0.00 | 0.00 | 57 | |
| 20260509180759 | 72 | 187 | 2.0 | 10.0 | 0.00 | 0.00 | 0.00 | 55 | |
| 20260509180558 | 72 | 229 | 4.0 | 10.0 | 0.00 | 0.00 | 0.00 | 55 | |
| 20260509180403 | 72 | 246 | 3.0 | 9.0 | 0.00 | 0.00 | 0.00 | 55 | |
| 20260509180158 | 72 | 247 | 3.0 | 9.0 | 0.00 | 0.00 | 0.00 | 56 | |
| 20260509180005 | 72 | 244 | 5.0 | 9.0 | 0.00 | 0.00 | 0.00 | 55 | |
| 20260509175759 | 72 | 222 | 4.0 | 9.0 | 0.00 | 0.00 | 0.00 | 55 | |
| 20260509175558 | 72 | 234 | 3.0 | 9.0 | 0.00 | 0.00 | 0.00 | 55 | |
| 20260509175357 | 72 | 235 | 3.0 | 10.0 | 0.00 | 0.00 | 0.00 | 56 | |
| 20260509175158 | 72 | 241 | 1.0 | 10.0 | 0.00 | 0.00 | 0.00 | 56 | |
| 20260509175000 | 72 | 227 | 3.0 | 10.0 | 0.00 | 0.00 | 0.00 | 56 | |
| 20260509174757 | 72 | 241 | 4.0 | 10.0 | 0.00 | 0.00 | 0.00 | 54 | |
| 20260509174559 | 72 | 237 | 3.0 | 10.0 | 0.00 | 0.00 | 0.00 | 54 | |
| 20260509173958 | 72 | 221 | 4.0 | 8.0 | 0.00 | 0.00 | 0.00 | 54 | |
| 20260509173602 | 73 | 249 | 3.0 | 8.0 | 0.00 | 0.00 | 0.00 | 53 | |
| 20260509173357 | 73 | 202 | 4.0 | 7.0 | 0.00 | 0.00 | 0.00 | 53 | |
| 20260509173158 | 73 | 247 | 3.0 | 7.0 | 0.00 | 0.00 | 0.00 | 53 | |
| 20260509172959 | 73 | 240 | 3.0 | 10.0 | 0.00 | 0.00 | 0.00 | 53 | |
| 20260509172759 | 73 | 237 | 1.0 | 10.0 | 0.00 | 0.00 | 0.00 | 54 | |
| 20260509172558 | 73 | 225 | 2.0 | 10.0 | 0.00 | 0.00 | 0.00 | 53 | |
| 20260509172357 | 73 | 252 | 3.0 | 10.0 | 0.00 | 0.00 | 0.00 | 53 | |
| 20260509172157 | 73 | 171 | 4.0 | 10.0 | 0.00 | 0.00 | 0.00 | 54 | |
| 20260509172000 | 73 | 243 | 3.0 | 10.0 | 0.00 | 0.00 | 0.00 | 53 | |
| 20260509171559 | 73 | 194 | 3.0 | 9.0 | 0.00 | 0.00 | 0.00 | 53 | |
| 20260509171200 | 73 | 251 | 5.0 | 11.0 | 0.00 | 0.00 | 0.00 | 53 | |
| 20260509170758 | 73 | 222 | 3.0 | 13.0 | 0.00 | 0.00 | 0.00 | 53 | |
| 20260509170559 | 73 | 161 | 4.0 | 13.0 | 0.00 | 0.00 | 0.00 | 54 | |
| 20260509170158 | 73 | 248 | 4.0 | 13.0 | 0.00 | 0.00 | 0.00 | 54 | |
| 20260509170002 | 73 | 241 | 4.0 | 13.0 | 0.00 | 0.00 | 0.00 | 54 | |
| 20260509165757 | 73 | 308 | 4.0 | 13.0 | 0.00 | 0.00 | 0.00 | 53 | |
| 20260509165402 | 73 | 245 | 5.0 | 13.0 | 0.00 | 0.00 | 0.00 | 52 | |
| 20260509165158 | 73 | 237 | 5.0 | 12.0 | 0.00 | 0.00 | 0.00 | 54 | |
| 20260509165000 | 73 | 221 | 5.0 | 12.0 | 0.00 | 0.00 | 0.00 | 52 | |
| 20260509164559 | 73 | 234 | 6.0 | 13.0 | 0.00 | 0.00 | 0.00 | 53 | |
| 20260509164357 | 73 | 239 | 5.0 | 13.0 | 0.00 | 0.00 | 0.00 | 53 | |
| 20260509164158 | 73 | 239 | 4.0 | 13.0 | 0.00 | 0.00 | 0.00 | 52 | |
| 20260509163958 | 73 | 253 | 5.0 | 13.0 | 0.00 | 0.00 | 0.00 | 52 | |
| 20260509163759 | 73 | 212 | 6.0 | 11.0 | 0.00 | 0.00 | 0.00 | 51 | |
| 20260509163558 | 74 | 251 | 5.0 | 12.0 | 0.00 | 0.00 | 0.00 | 52 | |
| 20260509163159 | 74 | 253 | 4.0 | 12.0 | 0.00 | 0.00 | 0.00 | 52 | |
| 20260509162959 | 74 | 253 | 6.0 | 13.0 | 0.00 | 0.00 | 0.00 | 51 | |
| 20260509162757 | 74 | 243 | 6.0 | 13.0 | 0.00 | 0.00 | 0.00 | 51 | |
| 20260509162558 | 74 | 141 | 5.0 | 13.0 | 0.00 | 0.00 | 0.00 | 51 | |
| 20260509162358 | 74 | 169 | 5.0 | 13.0 | 0.00 | 0.00 | 0.00 | 52 | |
| 20260509162159 | 74 | 227 | 4.0 | 13.0 | 0.00 | 0.00 | 0.00 | 52 | |
| 20260509161959 | 74 | 257 | 6.0 | 13.0 | 0.00 | 0.00 | 0.00 | 55 | |
| 20260509161800 | 74 | 229 | 5.0 | 13.0 | 0.00 | 0.00 | 0.00 | 53 | |
| 20260509161559 | 74 | 247 | 5.0 | 13.0 | 0.00 | 0.00 | 0.00 | 55 | |
| 20260509161358 | 74 | 208 | 6.0 | 11.0 | 0.00 | 0.00 | 0.00 | 53 | |
| 20260509161158 | 73 | 189 | 4.0 | 11.0 | 0.00 | 0.00 | 0.00 | 55 | |
| 20260509161005 | 73 | 162 | 3.0 | 11.0 | 0.00 | 0.00 | 0.00 | 56 | |
| 20260509160758 | 73 | 274 | 2.0 | 9.0 | 0.00 | 0.00 | 0.00 | 59 | |
| 20260509160558 | 73 | 208 | 4.0 | 9.0 | 0.00 | 0.00 | 0.00 | 55 | |
| 20260509160359 | 73 | 224 | 5.0 | 9.0 | 0.00 | 0.00 | 0.00 | 57 | |
| 20260509160202 | 73 | 216 | 4.0 | 9.0 | 0.00 | 0.00 | 0.00 | 58 | |
| 20260509160000 | 73 | 245 | 3.0 | 9.0 | 0.00 | 0.00 | 0.00 | 56 | |
| 20260509155757 | 72 | 184 | 1.0 | 9.0 | 0.00 | 0.00 | 0.00 | 57 | |
| 20260509155557 | 72 | 225 | 3.0 | 9.0 | 0.00 | 0.00 | 0.00 | 58 | |
| 20260509155357 | 72 | 215 | 2.0 | 9.0 | 0.00 | 0.00 | 0.00 | 58 |